Temperature
22 22 21 21 20 20 22 24 24 24 24 23 23 23 22 21 20 19 19 19 19 19 19 19 19 19 19 19 19 19 19 19 19 19 19 19 19 19 19 19 19 19 19 19 19 19 19 19 18
23 22 22 21 20 21 23 24 24 24 24 24 23 22 21 20 19 19 19 19 19 19 19 19 19 19 19 19 19 19 19 19 19 19 19 19 19 19 19 19 19 19 19 19 19 19 19 19 18
23 22 21 20 21 22 23 24 25 25 24 24 23 22 21 20 19 19 19 19 19 19 19 19 19 19 19 19 19 19 19 19 19 19 19 19 19 19 19 19 19 19 19 19 19 19 19 19 18
23 22 22 21 22 24 24 25 25 25 24 23 22 21 20 20 20 19 19 19 19 19 19 19 19 19 19 19 19 19 19 19 19 19 19 19 19 19 19 19 19 19 19 19 19 19 19 19 19
23 22 21 22 23 25 25 26 25 24 24 23 22 21 20 20 20 20 19 19 20 19 19 19 19 19 19 19 19 19 19 19 19 19 19 19 19 19 19 19 19 19 19 19 19 19 19 19 18
23 21 21 22 24 25 26 25 25 24 23 23 22 21 20 20 20 20 19 19 19 19 19 19 19 19 19 19 19 19 19 19 19 19 19 19 19 19 19 19 19 19 19 19 19 19 19 18 18
23 21 22 23 24 25 25 25 25 24 23 23 22 20 20 20 20 20 20 19 19 19 19 19 19 19 19 19 19 19 19 19 19 19 19 19 19 19 19 19 19 19 19 19 19 19 19 18 18
25 22 23 24 24 25 26 26 25 24 23 23 22 21 20 20 20 20 20 19 19 19 19 19 19 19 19 19 19 19 19 19 19 19 19 19 19 19 19 19 19 19 19 19 19 19 18 18 18
25 22 23 24 24 25 26 25 25 24 23 23 22 22 21 21 20 20 19 19 19 19 19 19 19 19 19 19 19 19 19 19 19 19 19 19 19 19 19 19 19 19 19 19 19 18 18 18 18
25 23 25 26 25 25 26 25 25 24 23 22 22 21 21 21 20 20 20 19 19 19 19 19 19 19 19 19 19 19 19 19 19 19 19 19 19 19 19 19 19 19 19 19 18 18 18 18 18
26 25 26 27 27 27 26 26 25 24 22 22 22 21 21 21 21 20 20 20 20 20 19 19 19 19 19 19 19 19 19 19 19 19 19 19 19 18 18 18 18 19 18 19 19 18 18 18 18
27 27 28 28 28 27 26 26 25 24 23 23 23 22 21 21 21 21 20 20 20 20 19 19 19 19 19 19 19 19 19 19 19 19 19 19 19 18 18 18 18 18 18 18 18 18 18 18 18
28 28 28 28 28 27 27 26 25 24 24 23 23 22 22 21 21 21 21 21 20 20 20 19 19 19 19 19 19 19 19 19 19 19 19 19 19 18 18 18 18 18 18 18 18 18 18 18 18
28 28 28 28 28 27 26 26 25 24 24 23 23 22 22 22 21 21 21 21 20 20 20 19 19 19 19 19 19 19 19 19 19 19 19 19 18 18 18 18 18 18 18 18 18 18 18 18 18
28 27 27 27 27 27 26 25 25 24 24 23 23 22 22 22 22 21 21 21 21 20 20 20 20 19 19 19 19 19 19 19 19 19 19 18 18 18 19 19 18 18 18 18 18 18 18 18 18
27 26 26 27 27 27 25 23 25 25 24 23 23 22 22 22 22 22 21 21 21 20 20 20 20 19 19 19 19 19 19 19 19 19 19 18 18 19 19 19 19 18 18 18 18 18 18 18 18
25 24 25 27 27 27 25 24 25 25 24 23 23 23 22 22 22 22 21 21 21 21 20 20 20 19 19 19 19 19 19 19 19 19 19 19 19 19 19 19 19 18 18 18 18 18 18 18 18
25 25 26 26 27 27 25 24 25 25 24 24 23 23 22 22 22 22 22 21 21 21 20 20 20 19 19 19 19 19 19 19 19 19 19 19 19 19 19 19 19 19 18 18 18 18 18 18 18
26 26 26 26 27 26 25 25 25 25 24 24 23 23 22 22 22 22 22 22 21 21 21 20 20 20 19 19 19 19 19 19 19 18 19 19 19 19 19 19 19 18 18 18 18 18 18 18 18
27 26 26 26 28 27 25 25 25 25 24 24 24 23 23 22 22 22 22 22 21 21 21 20 20 20 20 20 19 19 19 19 19 19 19 19 19 19 19 19 19 19 19 19 18 18 18 18 18
27 26 26 26 27 26 26 24 24 24 25 25 24 24 23 23 22 22 22 22 22 21 21 21 20 20 20 20 19 19 19 19 19 19 19 19 19 19 19 19 19 19 19 19 19 18 18 18 18
26 28 28 27 25 24 25 23 23 23 24 24 24 24 23 23 23 22 22 22 22 22 21 21 21 20 20 20 20 19 19 19 19 19 19 19 19 19 19 19 19 19 19 19 19 18 18 18 18
27 28 28 27 25 24 24 23 23 23 23 23 24 24 24 23 23 23 22 22 22 22 21 21 21 20 20 20 20 19 19 19 19 19 19 19 19 19 19 19 19 19 19 19 19 19 18 18 18
29 27 25 23 22 23 24 23 23 22 23 24 24 24 24 24 23 23 23 22 22 22 21 21 21 20 20 20 20 19 19 19 19 19 19 19 19 19 19 19 19 19 19 19 19 19 18 18 18
27 24 23 23 22 22 23 23 23 24 25 25 24 25 24 24 23 23 23 22 22 22 21 21 21 21 20 20 20 20 19 19 19 19 19 19 19 19 19 19 19 19 19 19 19 19 18 18 18
26 24 23 23 22 22 23 23 24 25 26 26 26 25 25 24 24 23 23 23 22 22 22 21 21 21 20 20 20 20 19 19 19 19 19 19 19 19 19 19 19 19 19 19 18 19 18 18 18
27 25 23 22 23 23 23 24 25 25 25 25 25 25 25 24 24 24 23 23 23 22 22 22 21 21 21 20 20 20 19 19 19 19 19 19 19 19 19 19 19 19 19 19 19 18 18 18 18
27 25 22 22 22 23 23 23 23 24 24 24 24 25 25 24 24 24 24 23 23 23 22 22 21 21 21 20 20 20 19 19 19 19 19 19 19 19 19 19 19 19 19 19 18 18 18 18 18
27 25 22 20 21 22 22 23 25 24 24 24 24 25 25 24 24 24 24 24 23 23 22 22 21 21 21 21 20 20 20 19 19 19 19 19 19 19 19 19 19 18 18 18 18 18 18 18 18
26 25 22 22 22 21 21 22 25 24 24 24 24 25 25 25 25 24 24 23 23 22 22 22 21 21 21 21 20 20 20 20 19 19 19 19 19 19 18 18 19 18 18 18 18 18 18 18 18
Wind_Speed
9 7 3 1 3 4 3 4 6 7 6 8 11 10 10 8 5 6 3 7 7 6 8 10 12 13 13 13 14 14 14 15 15 15 15 15 16 16 16 15 15 15 15 14 13 13 12 11 11
6 5 1 2 3 4 4 5 10 10 10 10 11 12 10 8 7 7 4 6 7 7 8 10 12 13 13 13 14 14 14 14 14 14 14 15 15 15 15 15 14 14 14 13 13 12 11 11 10
6 3 1 2 2 3 4 6 11 12 10 8 6 7 6 5 6 4 5 8 7 6 7 10 12 13 13 14 14 14 14 14 14 14 14 15 15 14 14 14 14 13 13 13 12 11 10 10 9
3 2 2 3 4 4 6 7 11 12 10 9 8 7 5 5 5 7 9 9 8 5 7 10 12 13 13 14 14 14 14 14 14 14 14 14 14 13 13 13 13 13 12 11 11 10 9 8 7
1 3 3 3 4 5 7 10 11 10 6 9 11 8 5 4 11 12 10 9 8 5 6 9 12 13 13 13 14 14 13 13 13 13 13 13 13 12 12 12 12 12 11 11 10 9 8 7 6
2 3 3 3 5 6 7 10 13 14 13 11 10 7 4 7 11 10 9 8 7 6 6 9 13 13 14 14 14 13 13 13 13 13 12 12 12 11 11 10 11 11 11 10 9 8 7 6 5
3 3 2 4 6 7 8 9 11 12 11 7 7 6 4 6 7 9 9 8 6 6 6 6 9 11 13 14 14 14 13 13 13 12 12 12 11 11 10 10 10 10 10 9 7 6 5 4 4
4 3 2 4 7 7 7 8 9 12 9 9 7 7 6 6 8 9 8 8 7 5 5 6 7 8 9 11 14 13 13 12 12 12 12 11 11 10 9 9 10 10 9 8 7 5 4 3 3
2 4 2 4 6 6 9 11 8 9 10 6 5 7 9 11 10 10 8 7 6 6 5 6 6 7 8 9 11 11 11 11 11 10 11 10 8 8 8 9 10 9 8 7 5 4 3 3 2
4 4 5 5 8 8 10 12 9 8 11 9 10 10 11 11 10 10 10 8 7 7 6 6 6 6 7 7 8 7 7 7 7 8 8 7 6 6 7 9 9 8 6 5 4 3 3 2 1
3 4 4 5 8 10 10 10 8 10 8 11 13 12 11 10 10 10 9 9 8 8 8 7 7 7 6 5 6 5 5 5 6 7 7 7 6 4 4 5 5 5 4 3 2 2 3 2 2
4 4 4 5 8 10 10 9 8 9 9 12 13 13 11 10 9 9 9 8 7 8 8 8 7 6 6 6 5 4 4 4 4 5 7 6 3 3 3 3 3 3 3 2 2 3 3 2 2
5 3 5 8 9 10 12 11 11 9 12 13 13 12 11 10 9 8 8 8 8 8 8 8 8 7 6 5 4 4 3 4 4 5 6 7 4 3 3 3 3 4 4 3 3 2 1 1 1
2 3 5 7 8 10 13 9 9 11 13 13 12 10 10 10 10 8 8 8 8 8 8 7 8 7 7 5 4 4 4 5 5 4 6 7 6 4 3 2 2 3 4 4 3 2 1 1 0
2 4 3 3 5 6 12 8 9 13 14 13 12 11 10 9 10 10 9 9 8 8 8 7 8 7 7 6 5 4 4 5 4 4 6 6 6 5 4 2 1 2 2 2 2 1 1 0 0
3 4 2 2 4 6 9 7 8 12 14 12 11 11 10 8 9 9 10 9 8 8 7 7 8 7 6 5 4 4 4 5 4 5 6 6 5 5 3 2 1 1 2 2 1 1 1 0 1
4 1 1 1 3 5 6 7 9 11 13 12 11 11 11 9 8 9 10 10 9 9 8 7 7 7 6 5 4 4 4 4 4 4 4 4 4 4 3 1 1 1 1 1 1 2 2 1 1
3 1 1 1 3 5 5 7 10 11 12 12 11 11 11 11 10 10 10 11 10 9 8 8 7 6 6 4 4 3 3 3 3 3 3 4 3 3 3 1 0 1 2 1 1 1 1 1 1
4 2 2 3 3 5 6 8 11 12 11 11 11 11 12 11 10 10 11 11 10 9 8 8 8 6 5 3 3 3 2 2 1 2 3 3 3 3 3 1 1 1 2 1 1 1 2 1 1
4 3 3 3 3 3 4 6 9 11 13 14 14 13 12 10 10 10 10 10 10 10 9 8 8 7 6 4 3 3 3 2 2 1 1 2 2 2 2 2 1 1 2 2 2 2 1 0 1
5 6 6 4 1 2 4 1 4 6 6 9 12 12 13 14 14 13 12 11 11 11 11 10 8 8 7 5 3 3 3 2 1 1 0 1 2 2 2 2 2 1 2 2 1 2 3 1 1
5 6 7 4 3 1 3 2 5 6 6 8 10 11 12 12 12 12 12 12 12 11 10 9 9 8 7 6 6 5 4 3 3 2 2 1 2 2 2 3 3 3 2 2 1 2 2 3 0
6 5 4 4 3 1 1 3 5 5 7 10 11 12 13 13 13 13 12 12 11 10 10 8 8 7 7 7 7 6 4 3 2 2 2 1 0 1 1 2 3 3 2 2 2 2 2 2 2
4 4 5 5 5 1 3 3 5 6 11 12 12 13 14 14 14 13 11 10 8 9 9 9 9 7 7 7 7 7 7 5 4 3 3 1 0 0 1 1 2 2 2 2 2 2 2 1 1
5 6 3 4 3 5 3 2 8 9 10 13 15 15 14 14 13 12 12 12 11 11 10 10 10 8 7 7 7 7 7 7 6 5 4 3 2 1 2 1 2 2 2 2 2 2 1 1 1
6 9 7 4 4 4 3 4 7 6 7 10 12 13 14 14 13 13 14 14 13 13 11 10 10 9 8 7 7 6 6 5 4 5 5 4 3 3 2 2 2 3 2 2 2 1 1 1 1
5 4 8 7 2 1 3 3 5 1 3 8 11 12 13 13 13 13 13 13 13 13 12 11 11 9 9 8 7 6 5 5 5 4 4 3 3 3 3 2 2 2 2 2 2 1 1 1 1
7 7 6 5 4 2 3 3 5 4 5 6 10 12 12 11 11 12 12 12 12 12 11 11 10 10 9 8 7 7 6 5 5 4 4 4 3 2 2 2 2 2 2 2 2 1 1 1 1
2 3 5 4 6 6 3 7 7 9 8 9 9 11 13 13 12 11 10 10 10 10 10 10 9 8 9 8 7 7 6 6 5 5 5 4 3 3 3 3 3 3 2 2 2 2 1 1 1
6 6 7 5 3 5 5 7 6 7 7 8 9 9 12 13 12 11 11 9 10 10 10 10 10 10 9 9 8 7 6 6 6 5 4 4 4 3 3 3 3 3 3 2 3 3 2 2 2
Wind_Direction
159 154 155 130 39 46 62 71 92 85 68 63 70 78 77 63 88 122 148 128 129 134 137 129 131 127 123 121 121 120 120 117 114 112 114 117 120 121 121 122 122 122 121 119 117 115 115 116 116
157 163 135 52 64 67 62 79 86 94 110 102 77 76 72 65 78 108 115 126 125 131 135 132 133 132 127 124 124 123 123 121 120 118 116 117 122 124 124 124 123 123 123 122 120 118 117 117 115
165 177 107 63 86 115 109 92 97 95 95 91 86 65 69 86 100 120 139 135 122 123 131 136 136 135 130 129 130 130 128 126 123 120 120 121 121 122 124 124 124 125 126 125 124 122 120 120 120
147 103 51 65 92 115 123 117 106 99 79 72 90 75 72 89 112 129 134 127 118 118 132 141 139 137 134 133 132 132 131 130 127 125 124 125 124 123 124 127 129 130 130 129 130 128 126 124 122
104 88 60 80 102 107 107 109 101 91 83 84 89 96 85 82 112 123 129 126 124 128 137 141 140 140 138 136 135 133 132 132 131 130 129 130 129 128 129 130 135 136 136 135 135 133 132 131 128
67 77 73 99 104 99 102 106 97 93 101 100 98 101 102 123 122 128 127 127 131 134 133 139 140 141 141 140 138 137 136 135 135 136 135 136 136 138 137 137 142 142 141 140 141 140 139 139 138
121 105 117 126 103 96 105 105 104 111 113 107 115 101 121 133 135 132 128 128 127 130 126 127 136 137 141 143 141 140 141 140 140 142 143 144 144 144 145 145 146 147 146 147 150 147 146 150 157
161 102 81 110 110 108 114 100 111 117 108 122 115 119 149 162 143 129 121 119 121 119 118 121 125 127 135 141 141 141 143 143 144 145 147 146 146 147 150 152 154 156 157 159 159 159 163 172 185
128 89 119 141 133 133 122 107 101 101 110 104 93 119 145 145 131 123 117 111 118 119 118 125 122 128 135 139 142 143 143 144 144 147 147 145 144 147 154 158 160 164 168 172 175 183 198 218 229
129 131 175 165 147 143 129 122 123 111 103 101 103 112 128 135 130 128 134 136 137 137 135 136 137 141 146 146 143 146 146 147 144 143 143 147 149 153 153 162 167 169 175 179 193 217 243 260 266
144 147 158 134 137 135 127 123 121 120 121 135 138 140 138 134 133 135 142 148 149 149 144 146 150 148 144 137 144 151 154 154 152 152 156 152 149 154 156 163 167 174 181 193 217 252 255 253 259
126 139 144 125 127 127 128 123 114 123 145 145 140 139 138 136 141 143 141 143 144 139 146 149 149 139 143 144 144 153 156 162 165 164 160 157 149 145 153 163 166 179 186 186 218 241 239 244 237
110 130 121 124 121 120 117 121 121 127 134 136 132 132 136 137 139 136 132 132 134 134 143 150 147 142 141 134 144 143 150 159 161 156 161 157 145 143 157 170 178 186 190 191 206 228 227 248 245
162 147 128 126 121 124 119 121 115 139 140 137 136 136 141 140 139 134 131 131 135 136 137 140 138 139 136 131 133 136 150 153 147 150 152 147 149 146 151 157 174 187 196 199 201 196 200 264 205
72 89 80 130 134 129 113 105 134 148 143 143 147 146 145 145 144 148 148 143 144 143 137 137 134 128 127 128 129 126 133 135 134 143 141 140 142 145 143 144 162 193 191 179 170 153 114 253 186
31 58 86 221 150 143 114 145 162 154 147 150 155 152 149 150 152 151 147 142 142 141 138 144 139 129 127 124 123 122 122 127 132 133 126 129 136 139 137 134 175 201 168 149 143 123 104 38 43
27 65 242 266 171 147 127 160 173 163 155 157 158 154 154 154 155 152 151 149 149 149 144 142 135 135 135 128 122 116 115 121 132 131 131 138 137 137 138 152 207 197 94 104 150 135 145 141 91
239 227 279 234 182 126 129 160 165 171 163 163 162 159 159 163 170 162 155 155 151 149 144 143 142 142 136 123 105 92 95 105 119 140 152 151 145 140 139 155 189 111 91 79 89 110 108 131 121
188 161 258 255 171 128 159 166 174 177 173 168 167 168 169 174 174 162 158 156 152 148 145 146 146 151 141 132 131 127 138 135 141 170 166 154 149 144 137 140 122 112 108 119 110 109 82 59 95
187 208 232 270 212 149 170 178 184 185 185 179 175 177 175 170 167 165 162 159 159 158 157 153 155 156 154 156 157 157 152 161 172 174 149 153 149 153 142 141 138 127 109 90 89 107 99 357 92
219 206 210 209 301 61 118 84 191 198 187 180 180 178 176 176 173 172 170 168 165 167 167 165 162 160 161 158 139 122 90 77 82 106 178 188 159 150 138 136 142 133 124 128 111 125 125 139 327
228 219 191 180 116 254 140 191 243 202 190 178 177 176 177 177 171 172 174 174 175 176 169 162 163 163 164 158 151 153 155 168 197 189 189 188 169 172 154 135 131 129 124 127 140 132 135 134 179
213 211 167 172 142 29 32 137 266 185 191 198 187 181 178 174 170 172 175 178 177 172 166 161 160 166 166 163 162 161 167 182 185 169 167 174 180 178 169 144 137 139 141 150 145 126 133 143 155
167 78 41 43 72 357 242 160 253 210 198 194 190 182 177 174 174 175 173 168 167 169 168 165 164 172 172 168 167 167 170 170 164 169 173 189 214 266 276 152 159 165 162 164 168 155 147 149 147
111 95 43 7 10 255 256 188 243 228 199 185 182 182 178 172 173 173 169 172 173 172 172 172 170 174 175 171 175 179 178 176 179 184 185 183 189 212 244 193 169 178 185 185 169 141 158 164 152
189 143 154 186 213 269 303 227 258 241 198 180 174 173 173 173 176 178 179 178 178 177 173 174 176 177 178 179 182 181 177 176 183 189 185 189 198 208 204 187 181 188 185 178 159 150 189 170 181
171 179 164 142 176 179 278 290 315 41 140 157 160 163 173 177 177 179 180 180 179 177 178 178 178 178 182 184 179 177 178 173 174 178 177 183 196 200 192 183 172 180 174 172 157 161 219 195 204
158 153 97 118 157 222 280 258 230 216 185 168 167 170 173 173 173 176 178 179 178 178 177 175 177 183 182 180 182 183 180 177 172 165 173 183 194 191 170 168 174 175 178 172 157 175 202 179 229
138 113 113 128 153 156 222 263 221 196 189 180 183 176 172 170 171 172 175 176 172 169 170 173 179 178 180 181 181 179 178 176 171 174 185 185 184 182 176 177 176 177 187 187 172 197 198 196 245
170 170 146 153 217 171 178 259 254 187 182 173 175 174 172 171 172 172 170 165 168 170 171 176 180 182 184 182 179 181 175 173 177 187 193 184 182 181 179 175 175 187 196 195 194 214 213 208 230
Height
1502 1502 1502 1504 1506 1512 1512 1504 1497 1497 1498 1498 1497 1498 1501 1505 1509 1518 1515 1514 1514 1514 1514 1514 1514 1514 1514 1514 1514 1515 1516 1517 1518 1518 1520 1521 1522 1523 1525 1526 1528 1529 1531 1532 1533 1534 1535 1536 1536
1502 1502 1504 1505 1512 1522 1515 1502 1499 1498 1499 1499 1500 1502 1504 1508 1510 1512 1513 1514 1514 1514 1514 1514 1515 1515 1515 1515 1516 1517 1518 1519 1520 1521 1521 1522 1524 1525 1527 1528 1530 1531 1532 1533 1534 1535 1536 1537 1538
1502 1503 1505 1508 1514 1518 1513 1502 1499 1500 1500 1499 1502 1505 1508 1512 1513 1513 1514 1515 1515 1515 1515 1514 1515 1515 1516 1517 1518 1518 1519 1520 1521 1522 1523 1524 1525 1527 1528 1530 1531 1533 1534 1535 1536 1537 1538 1539 1540
1503 1505 1507 1512 1513 1507 1503 1500 1499 1500 1502 1503 1504 1508 1511 1514 1514 1514 1515 1515 1515 1515 1514 1514 1515 1516 1517 1518 1519 1520 1521 1522 1523 1524 1525 1526 1528 1529 1530 1532 1533 1534 1535 1536 1537 1538 1539 1540 1541
1503 1505 1511 1516 1510 1503 1499 1499 1499 1501 1504 1506 1506 1511 1514 1516 1515 1515 1516 1516 1515 1514 1514 1514 1514 1516 1517 1519 1520 1521 1522 1523 1525 1526 1527 1528 1530 1531 1532 1533 1534 1535 1536 1537 1538 1539 1540 1541 1541
1504 1507 1518 1520 1511 1503 1501 1501 1501 1504 1507 1509 1510 1512 1516 1517 1516 1517 1517 1516 1516 1515 1514 1514 1515 1517 1518 1520 1521 1523 1524 1525 1526 1527 1529 1530 1531 1532 1533 1534 1535 1536 1537 1538 1539 1540 1541 1542 1542
1505 1509 1516 1514 1511 1507 1504 1502 1503 1505 1508 1510 1511 1513 1518 1519 1518 1518 1518 1517 1517 1516 1515 1515 1516 1518 1520 1521 1523 1524 1525 1526 1528 1529 1530 1531 1532 1533 1534 1535 1536 1537 1538 1539 1540 1541 1542 1542 1543
1503 1508 1513 1512 1511 1510 1504 1503 1505 1506 1509 1512 1512 1514 1517 1519 1519 1519 1519 1519 1518 1518 1517 1517 1518 1520 1521 1523 1524 1526 1527 1528 1529 1531 1532 1533 1534 1534 1535 1535 1537 1538 1539 1540 1541 1542 1543 1543 1544
1503 1511 1517 1511 1510 1508 1504 1505 1508 1509 1510 1512 1513 1514 1517 1519 1520 1520 1520 1520 1520 1519 1519 1519 1520 1522 1523 1525 1526 1528 1529 1530 1531 1532 1533 1534 1535 1536 1536 1537 1538 1539 1540 1541 1542 1543 1543 1544 1544
1502 1512 1508 1501 1501 1504 1504 1505 1508 1511 1512 1514 1516 1517 1518 1519 1520 1520 1520 1520 1521 1521 1521 1522 1523 1524 1526 1527 1529 1530 1531 1532 1533 1534 1535 1536 1537 1537 1538 1539 1540 1541 1541 1542 1543 1543 1544 1544 1544
1500 1503 1500 1498 1499 1501 1504 1506 1508 1511 1515 1515 1515 1518 1519 1520 1521 1521 1521 1522 1522 1523 1524 1525 1526 1527 1528 1530 1531 1532 1533 1534 1535 1536 1537 1537 1538 1539 1539 1540 1541 1541 1542 1543 1543 1544 1544 1544 1544
1498 1498 1497 1499 1499 1501 1504 1507 1510 1511 1514 1515 1516 1517 1519 1520 1521 1522 1522 1523 1524 1525 1526 1527 1528 1529 1531 1532 1533 1534 1535 1535 1536 1537 1538 1539 1539 1540 1541 1541 1542 1542 1543 1544 1544 1544 1545 1545 1544
1497 1498 1497 1499 1500 1501 1504 1507 1510 1514 1515 1517 1518 1519 1520 1521 1522 1523 1524 1525 1526 1527 1529 1530 1531 1531 1532 1533 1534 1535 1536 1537 1538 1538 1539 1540 1540 1541 1542 1542 1543 1543 1544 1545 1545 1545 1545 1545 1544
1497 1498 1498 1499 1501 1503 1505 1509 1511 1516 1516 1518 1519 1520 1521 1522 1523 1525 1526 1527 1528 1529 1530 1531 1532 1533 1534 1535 1536 1537 1538 1538 1539 1540 1540 1541 1542 1542 1543 1543 1544 1544 1545 1545 1546 1546 1546 1545 1545
1497 1500 1502 1501 1502 1505 1507 1514 1513 1515 1517 1518 1520 1521 1522 1523 1524 1525 1527 1528 1529 1531 1532 1533 1534 1535 1536 1536 1537 1538 1539 1540 1540 1541 1541 1542 1543 1543 1544 1544 1545 1545 1546 1546 1546 1546 1546 1546 1545
1500 1506 1513 1505 1503 1506 1511 1523 1515 1515 1516 1518 1520 1522 1523 1524 1525 1526 1528 1529 1530 1532 1533 1534 1535 1536 1537 1537 1538 1539 1540 1541 1541 1542 1543 1543 1544 1544 1544 1545 1545 1546 1546 1546 1546 1546 1546 1545 1545
1512 1519 1516 1508 1503 1504 1510 1518 1513 1515 1515 1517 1519 1521 1523 1524 1526 1527 1528 1529 1531 1532 1533 1534 1535 1536 1537 1538 1539 1540 1541 1542 1543 1543 1544 1544 1545 1545 1545 1545 1545 1546 1546 1546 1546 1546 1546 1546 1545
1520 1518 1516 1512 1503 1504 1510 1513 1512 1513 1514 1515 1518 1520 1522 1523 1525 1526 1528 1530 1531 1532 1534 1535 1536 1537 1538 1539 1540 1541 1542 1543 1543 1544 1544 1545 1545 1545 1545 1546 1546 1546 1546 1547 1547 1546 1546 1546 1545
1506 1511 1515 1509 1500 1504 1509 1511 1510 1511 1513 1515 1516 1518 1520 1522 1524 1526 1528 1529 1531 1532 1534 1535 1536 1537 1538 1539 1540 1541 1542 1543 1544 1544 1545 1545 1546 1546 1546 1546 1546 1546 1546 1546 1546 1546 1546 1546 1546
1504 1511 1513 1507 1499 1503 1508 1510 1508 1508 1509 1510 1513 1516 1518 1521 1523 1525 1527 1528 1530 1531 1533 1534 1535 1537 1538 1539 1540 1541 1542 1543 1544 1545 1545 1546 1546 1546 1546 1547 1546 1546 1546 1546 1546 1546 1546 1546 1546
1505 1509 1508 1509 1504 1503 1509 1517 1513 1509 1509 1510 1512 1513 1516 1518 1520 1523 1525 1526 1528 1529 1531 1533 1535 1536 1537 1539 1540 1541 1542 1543 1544 1544 1545 1546 1546 1546 1547 1547 1546 1546 1546 1546 1546 1545 1545 1545 1546
1507 1496 1498 1502 1512 1520 1514 1533 1518 1510 1509 1508 1510 1512 1514 1516 1519 1521 1523 1525 1526 1528 1530 1532 1534 1535 1537 1538 1539 1540 1541 1542 1543 1544 1545 1545 1546 1546 1546 1546 1546 1546 1546 1545 1545 1545 1545 1545 1545
1495 1490 1494 1499 1510 1520 1518 1529 1523 1510 1512 1507 1507 1508 1510 1513 1516 1518 1521 1522 1525 1527 1529 1531 1532 1534 1536 1537 1539 1540 1541 1542 1543 1544 1544 1545 1545 1546 1546 1546 1546 1545 1545 1545 1545 1545 1544 1544 1544
1486 1493 1499 1507 1518 1534 1522 1527 1526 1511 1504 1502 1502 1505 1508 1510 1513 1515 1518 1521 1523 1525 1528 1530 1531 1533 1535 1536 1538 1539 1540 1541 1542 1543 1543 1544 1544 1545 1545 1545 1545 1545 1545 1544 1544 1544 1544 1544 1544
1489 1511 1532 1536 1543 1538 1519 1521 1517 1495 1491 1493 1496 1500 1504 1507 1510 1513 1515 1518 1521 1523 1525 1528 1530 1531 1533 1535 1536 1538 1539 1540 1541 1542 1543 1543 1543 1544 1544 1544 1544 1544 1544 1544 1544 1544 1543 1543 1543
1491 1505 1530 1543 1546 1537 1520 1521 1505 1487 1486 1488 1492 1496 1501 1504 1507 1509 1512 1514 1517 1520 1523 1525 1527 1529 1531 1533 1535 1537 1538 1539 1540 1541 1541 1542 1542 1543 1543 1544 1544 1543 1543 1543 1543 1543 1543 1543 1543
1489 1499 1501 1522 1528 1536 1527 1513 1497 1486 1487 1488 1491 1495 1498 1501 1504 1506 1509 1512 1514 1517 1520 1522 1525 1527 1529 1531 1533 1535 1536 1538 1538 1539 1540 1541 1541 1542 1542 1543 1543 1543 1543 1543 1543 1542 1542 1542 1542
1478 1488 1507 1521 1537 1543 1531 1521 1512 1496 1492 1489 1490 1492 1495 1499 1502 1504 1507 1509 1512 1514 1517 1520 1523 1525 1527 1529 1531 1533 1535 1536 1537 1538 1538 1539 1540 1541 1541 1541 1541 1542 1542 1541 1541 1541 1541 1541 1540
1483 1490 1503 1518 1523 1537 1541 1525 1489 1489 1487 1488 1489 1490 1492 1496 1499 1502 1505 1507 1510 1513 1515 1518 1521 1523 1525 1527 1529 1531 1532 1534 1535 1536 1537 1538 1539 1539 1540 1540 1540 1540 1540 1540 1540 1540 1540 1539 1539
1476 1485 1499 1516 1521 1523 1530 1518 1478 1480 1481 1484 1486 1488 1490 1493 1496 1499 1502 1505 1508 1511 1514 1516 1518 1521 1523 1525 1527 1528 1530 1532 1533 1534 1535 1536 1537 1538 1538 1538 1538 1538 1538 1538 1538 1538 1538 1538 1538